CDT,Max TemperatureF,Mean TemperatureF,Min TemperatureF,Max Dew PointF,MeanDew PointF,Min DewpointF,Max Humidity, Mean Humidity, Min Humidity, Max Sea Level PressureIn, Mean Sea Level PressureIn, Min Sea Level PressureIn, Max VisibilityMiles, Mean VisibilityMiles, Min VisibilityMiles, Max Wind SpeedMPH, Mean Wind SpeedMPH, Max Gust SpeedMPH,PrecipitationIn, CloudCover, Events, WindDirDegrees
2013-10-1,88,79,70,72,69,67,100,75,50,30.06,30.01,29.95,10,8,4,14,7,17,0.00,4,,150
2013-10-2,87,80,72,71,69,64,93,72,51,30.10,30.04,29.99,10,9,5,12,6,16,0.02,3,,119
2013-10-3,87,78,68,72,69,66,97,76,55,30.07,30.01,29.95,10,7,1,10,6,16,0.00,4,,153
2013-10-4,87,79,70,73,71,69,93,75,57,30.06,30.01,29.97,10,10,6,13,7,17,0.00,4,,158
2013-10-5,91,80,69,72,69,66,97,72,47,30.03,29.95,29.89,10,7,1,23,7,29,1.33,5,Rain-Thunderstorm,197
2013-10-6,73,66,59,72,59,45,93,67,40,30.02,29.94,29.89,10,7,1,21,9,26,3.13,5,Rain-Thunderstorm,330
2013-10-7,72,62,52,53,51,49,93,71,49,30.12,30.07,30.01,10,10,10,15,7,20,0.00,0,,351
2013-10-8,75,64,52,56,51,46,96,67,38,30.14,30.10,30.05,10,10,10,12,5,16,0.00,0,,22
2013-10-9,79,65,51,63,56,51,100,73,45,30.15,30.09,30.06,10,9,2,9,2,13,0.00,1,,101
2013-10-10,77,67,57,64,61,57,100,80,60,30.16,30.08,30.00,10,3,0,8,2,10,0.00,3,,149
2013-10-11,83,69,55,66,59,55,100,73,46,30.07,30.01,29.97,10,4,0,12,4,17,0.00,1,,156
2013-10-12,79,70,61,72,67,60,100,90,79,30.12,30.07,29.99,10,6,0,25,4,31,0.44,3,Rain-Thunderstorm,215
2013-10-13,79,72,64,67,65,63,100,84,67,30.26,30.18,30.10,10,6,0,15,7,21,0.00,3,,22
2013-10-14,84,72,60,64,61,56,90,65,40,30.19,30.13,30.04,10,10,7,10,5,14,0.00,0,,69
2013-10-15,77,73,68,69,65,63,97,83,69,30.04,30.00,29.94,10,10,7,13,7,16,T,7,Rain,150
2013-10-16,70,65,59,68,62,55,100,89,78,30.03,29.96,29.90,10,6,2,17,9,22,0.79,8,Rain,353
2013-10-17,71,62,52,58,55,51,93,73,53,30.08,30.01,29.96,10,9,4,13,5,21,T,6,Rain,336
2013-10-18,71,60,49,58,51,48,100,74,47,30.11,30.04,29.97,10,4,0,10,2,13,0.00,2,Fog,111
2013-10-19,64,54,44,56,50,43,93,75,56,30.11,30.05,29.97,10,10,10,18,6,21,0.00,4,,350
2013-10-20,68,54,40,47,42,39,100,68,35,30.15,30.08,30.02,10,8,1,7,1,9,0.00,0,,154
2013-10-21,74,59,44,57,49,42,93,66,38,30.10,30.05,29.99,10,10,10,10,3,14,0.00,1,,219
2013-10-22,70,62,53,54,50,41,93,65,36,30.09,30.04,29.98,10,10,9,14,7,18,0.00,4,,332
2013-10-23,67,57,47,49,44,38,93,65,37,30.19,30.12,30.03,10,10,10,14,6,17,0.00,0,,320
2013-10-24,73,59,45,50,45,41,93,69,44,30.37,30.21,30.12,10,10,10,15,7,20,0.00,0,,23
2013-10-25,59,50,40,41,35,28,92,63,33,30.53,30.44,30.37,10,10,10,16,6,20,0.00,0,,42
2013-10-26,69,54,39,52,43,37,92,66,40,30.34,30.25,30.15,10,10,7,10,3,14,0.00,3,,214
2013-10-27,71,60,49,58,53,48,100,84,68,30.14,30.09,30.04,10,6,0,18,4,22,0.01,5,Fog,209
2013-10-28,74,62,49,61,55,48,96,79,61,30.22,30.15,30.08,10,5,0,10,5,13,0.00,6,Fog,70
2013-10-29,82,70,58,65,60,56,100,76,51,30.25,30.19,30.14,10,5,0,16,7,20,0.00,2,Fog,152
2013-10-30,77,71,64,66,64,61,93,79,64,30.19,30.11,29.98,10,10,7,17,10,23,0.04,2,Rain,170
2013-10-31,73,67,61,70,66,56,97,85,73,29.96,29.77,29.66,10,6,1,30,17,38,2.31,7,Rain,182